Weather in Pirot

Serbia     43°09′05″N   22°35′22″E
temp.,
°C
wind,
m/s
gust,
m/s
humid.,
%
clouds,
%
prec.,
mm/h
press.,
hPa
HPBL,
m
18 january, mon
mon1801:00−13n119695 0.1 102321
04:00−13nw0098100 0.1 102422
07:00−13wnw0197100 0.2 102522
10:00−9w1292100 0.1 1025239
13:00−8wnw238596 0.1 1023591
16:00−10w129377 0.1 102422
19:00−13wnw119553 0.1 102621
22:00−14nnw119660 0.0 102720
19 january, tue
tue1901:00−13n019571 0.1 102820
04:00−14n019499 0.0 102821
07:00−11sse019690 0.1 102821
10:00−7sw119397 0.2 1028160
13:00−4w129198 0.3 1026280
16:00−7se019582 0.1 102621
19:00−8ese119044 0.1 102622
22:00−7se238610 0.0 102630
20 january, wed
wed2001:00−7se238233 0.0 102629
04:00−6se228083 0.0 102530
07:00−7se227857 0.0 102624
10:00−2sse238236 0.0 1026147
13:000sse239257 0.0 1025208
16:00−2se228722 0.0 102526
19:00−4se228310 0.0 102525
22:00−3ese22840 0.0 102527
21 january, thu
thu2101:00−3ese23851 0.0 102525
04:00−3ese238483 0.0 102435
07:00−2ese338192 0.0 102460
10:00+1se3487100 0.0 1023116
13:00+2se239498 0.0 102289
16:00+1se238235 0.0 102145
19:00+1ese338029 0.0 102232
22:000ese338134 0.0 102251
22 january, fri
fri2201:000ese348568 0.0 102187
04:00+1ese3587100 0.0 1019120
07:00+1ese3587100 0.0 1019113
10:00+2ese3697100 0.0 1017133
13:00+3ese3497100 0.0 1015115
16:00+3se449267 0.0 101477
19:00+2se469370 0.0 1013124
22:00+2ese4692100 0.0 1012114